Overview Statistics Trail Chart Weather Telemetry Raw packets
 

This is the latest recevied weather packets stored in our database for station/object DG4CB-13. If no packets are shown the sender has not sent any weather packets the latest 10 day(s).

<< 9 10 11 12 13 14 15 >>
Time Temp. Humidity Pressure Rain* Wind** Luminosity Snow
1788289800 19.44° C 63% 1019.6 hPa - - - -
1788289200 19.44° C 62% 1019.6 hPa - - - -
1788288600 20° C 61% 1019.5 hPa - - - -
1788288000 20° C 60% 1019.4 hPa - - - -
1788287400 20.56° C 59% 1019.3 hPa - - - -
1788286800 20.56° C 57% 1019.1 hPa - - - -
1788286200 21.11° C 56% 1019 hPa - - - -
1788285605 21.67° C 55% 1018.9 hPa - - - -
1788284999 21.67° C 54% 1018.8 hPa - - - -
1788284400 22.22° C 54% 1018.8 hPa - - - -
1788283800 21.67° C 54% 1018.7 hPa - - - -
1788283200 21.67° C 54% 1018.7 hPa - - - -
1788282600 22.22° C 52% 1018.8 hPa - - - -
1788282000 22.22° C 53% 1018.7 hPa - - - -
1788281401 21.67° C 53% 1018.8 hPa - - - -
1788279000 22.22° C 54% 1018.7 hPa - - - -
1788278400 22.78° C 50% 1018.7 hPa - - - -
1788277800 23.33° C 48% 1018.6 hPa - - - -
1788277200 23.33° C 50% 1018.5 hPa - - - -
1788276600 22.78° C 50% 1018.6 hPa - - - -
1788276000 22.78° C 51% 1018.6 hPa - - - -
1788275400 22.22° C 54% 1018.5 hPa - - - -
1788274801 22.22° C 55% 1018.5 hPa - - - -
1788274201 22.22° C 53% 1018.4 hPa - - - -
1788273600 22.22° C 50% 1018.5 hPa - - - -

* Rain since midnight (hover to see other rain measurements)
** Current wind speed in m/s (hover to see current wind gust speed)